This demonstration page uses our WeatherBlox Daily Observations layout. Learn more.

Left ArrowRight Arrow

34.16533, -84.80231

Hourly Observations for August 14, 2019

Temp ( °F °C ) Dew Point ( °F °C ) Humidity (%) Winds ( mph kmh ) Pressure ( in mb ) Visibility ( mi km ) Precip ( " mm )
12:19 am 00:19 Mostly Cloudy with Light Rain 75 23.9 73 22.8 94 94 Calm 29.93 1014 10 16 0.00 0.00
12:53 am 00:53 Mostly Clear 76 24.4 73 22.8 91 91 Calm 29.91 1013 10 16 0.00 0.00
1:45 am 01:45 Clear with Nearby Thunderstorms 76 24.4 72 22.2 88 88 Calm 29.93 1014 10 16 0.00 0.00
1:53 am 01:53 Clear with Nearby Thunderstorms 76 24.4 73 22.8 91 91 Calm 29.91 1013 10 16 0.00 0.00
2:00 am 02:00 Clear 76 24.4 73 22.8 91 91 Calm 29.91 1013 10 16 0.00 0.00
2:53 am 02:53 Clear 75 23.9 73 22.8 94 94 Calm 29.91 1013 10 16 0.00 0.00
3:53 am 03:53 Clear 75 23.9 73 22.8 94 94 SSW 3 6 29.91 1013 9 14 0.00 0.00
4:23 am 04:23 Mostly Clear 75 23.9 73 22.8 94 94 Calm 29.93 1014 10 16 0.00 0.00
4:53 am 04:53 Clear 75 23.9 72 22.2 90 90 Calm 29.93 1014 9 14 0.00 0.00
5:53 am 05:53 Clear 75 23.9 72 22.2 90 90 Calm 29.91 1013 9 14 0.00 0.00
6:53 am 06:53 Clear 74 23.3 72 22.2 94 94 Calm 29.89 1012 9 14 0.00 0.00
7:53 am 07:53 Sunny 75 23.9 73 22.8 94 94 Calm 29.90 1013 8 13 0.00 0.00
8:23 am 08:23 Mostly Sunny 76 24.4 73 22.8 91 91 Calm 29.92 1013 9 14 0.00 0.00
8:39 am 08:39 Mostly Cloudy 76 24.4 73 22.8 91 91 Calm 29.92 1013 9 14 0.00 0.00
8:53 am 08:53 Partly Cloudy 77 25 74 23.3 90 90 Calm 29.91 1013 10 16 0.00 0.00
9:01 am 09:01 Mostly Cloudy 77 25 73 22.8 88 88 Calm 29.93 1014 10 16 0.00 0.00
9:08 am 09:08 Partly Cloudy 77 25 73 22.8 88 88 Calm 29.93 1014 10 16 0.00 0.00
9:53 am 09:53 Partly Cloudy 79 26.1 73 22.8 82 82 VRB 3 6 29.92 1013 10 16 0.00 0.00
10:53 am 10:53 Sunny 84 28.9 72 22.2 67 67 Calm 29.92 1013 10 16 0.00 0.00
11:53 am 11:53 Sunny 86 30 72 22.2 63 63 VRB 3 6 29.93 1014 10 16 0.00 0.00
12:53 pm 12:53 Sunny 88 31.1 73 22.8 61 61 Calm 29.92 1013 10 16 0.00 0.00
1:53 pm 13:53 Sunny 89 31.7 74 23.3 61 61 VRB 3 6 29.91 1013 10 16 0.00 0.00
2:53 pm 14:53 Sunny 92 33.3 72 22.2 52 52 VRB 3 6 29.88 1012 10 16 0.00 0.00
3:53 pm 15:53 Sunny 92 33.3 71 21.7 51 51 VRB 3 6 29.84 1011 10 16 0.00 0.00
4:53 pm 16:53 Mostly Cloudy 91 32.8 71 21.7 52 52 Calm 29.83 1010 10 16 0.00 0.00
5:23 pm 17:23 Mostly Cloudy with Nearby Thunderstorms 93 33.9 72 22.2 50 50 Calm 29.82 1010 10 16 0.00 0.00
5:43 pm 17:43 Cloudy with Thunderstorms 80 26.7 72 22.2 76 76 NNW 21 33 29.89 1012 3 5 0.00 0.00
5:46 pm 17:46 Cloudy with Strong Thunderstorms 75 23.9 72 22.2 90 90 NNW 14 22 29.91 1013 1 1 0.24 6.10
5:51 pm 17:51 Cloudy with Strong Thunderstorms 73 23 72 22 94 94 N 9 15 29.89 1012 0 0 0.47 11.94
5:53 pm 17:53 Cloudy with Strong Thunderstorms 73 22.8 71 21.7 94 94 NNE 9 15 29.88 1012 0 0 0.50 12.70
5:58 pm 17:58 Cloudy with Strong Thunderstorms 74 23.3 71 21.7 91 91 ENE 8 13 29.89 1012 1 2 0.03 0.76
6:03 pm 18:03 Cloudy with Thunderstorms 75 23.9 71 21.7 88 88 E 10 17 29.87 1012 3 5 0.04 1.02
6:22 pm 18:22 Cloudy with Nearby Thunderstorms 75 23.9 71 21.7 88 88 S 10 17 29.89 1012 10 16 0.05 1.27
6:40 pm 18:40 Partly Cloudy 78 25.6 73 22.8 85 85 SSE 8 13 29.89 1012 10 16 0.05 1.27
6:53 pm 18:53 Mostly Sunny 78 25.6 72 22.2 82 82 SE 5 7 29.88 1012 10 16 0.05 1.27
7:53 pm 19:53 Sunny 78 25.6 73 22.8 85 85 Calm 29.89 1012 10 16 0.00 0.00
8:53 pm 20:53 Clear 76 24.4 73 22.8 91 91 Calm 29.90 1013 10 16 0.00 0.00
9:53 pm 21:53 Clear 74 23.3 72 22.2 94 94 Calm 29.92 1013 10 16 0.00 0.00
10:53 pm 22:53 Clear 73 22.8 71 21.7 94 94 Calm 29.94 1014 10 16 0.00 0.00
11:53 pm 23:53 Clear 73 22.8 71 21.7 94 94 SW 3 6 29.94 1014 8 13 0.00 0.00

Powered by AerisWeather